Flag for Canada Weather past 2 weeks in Whitby, Ontario, Canada

Now
77 °F

Partly sunny.


Feels Like: 79 °F
Forecast: 65 / 76 °F
Wind: 9 mph from West

Location: Toronto Buttonville

Current Time: Aug 3, 2015 at 1:48:46 PM

Latest Report: Aug 3, 2015 at 1:00 PM


Visibility: 15 mi

Pressure: 29.71 "Hg

Humidity: 51%

Dew point: 57 °F

Location of WhitbyLocation

Historic Weather in Whitby — Graph

°F

Whitby temperature yesterday

Maximum temperature yesterday: 84 °F (at 2:00 PM)
Minimum temperature yesterday: 61 °F (at 5:00 AM)
Average temperature yesterday: 70 °F

Past Weeks' High & Low Weather Summary

 TemperatureHumidityPressure
High91 °F (Jul 27, 4:00 PM)94% (Aug 3, 4:00 AM)30.03 "Hg (Aug 3, 4:00 AM)
Low55 °F (Jul 23, 6:00 AM)31% (Jul 30, 6:00 PM)29.59 "Hg (Aug 3, 3:00 AM)
Average74 °F58%29.85 "Hg
* Reported Jul 19 12:00 Noon — Aug 3 12:00 Noon, Whitby, Weather by CustomWeather, © 2015

Note: Actual official high and low records may vary slightly from our data, if they occured in-between our weather recording intervals... More about our weather records

Advertising

Whitby weather history for previous 24 hours

 ConditionsComfort  
Time TempWeatherWind HumidityBarometerVisibility
12:00 PM
Mon, Aug 3
75 °FPartly sunny.10 mph57%29.71 "Hg15 mi
11:00 AM72 °FPartly sunny.8 mph73%29.70 "Hg15 mi
10:00 AM70 °FPartly sunny.13 mph73%29.69 "Hg15 mi
9:00 AM66 °FPartly sunny.9 mph83%29.70 "Hg15 mi
8:00 AM64 °FPartly sunny.12 mph88%29.68 "Hg60 mi
7:00 AM64 °FLight rain. Overcast.8 mph88%29.68 "Hg10 mi
6:45 AM64 °FLight rain. Overcast.8 mph88%29.68 "Hg12 mi
6:00 AM64 °FMostly cloudy.8 mph88%29.68 "Hg15 mi
5:00 AM64 °FPassing clouds.3 mph88%29.65 "Hg15 mi
4:00 AM63 °FOvercast.5 mph94%29.64 "Hg15 mi
3:00 AM64 °FOvercast.8 mph88%29.59 "Hg12 mi
2:00 AM64 °FOvercast.10 mph88%29.62 "Hg12 mi
1:00 AM66 °FOvercast.8 mph88%29.62 "Hg15 mi
12:00 AM66 °FOvercast.6 mph88%29.63 "Hg15 mi
11:00 PM
Sun, Aug 2
66 °FSprinkles. Overcast.8 mph88%29.64 "Hg15 mi
10:00 PM66 °FThunderstorms. Mostly cloudy.2 mph88%29.65 "Hg15 mi
9:50 PM68 °FThunderstorms. Mostly cloudy.3 mph83%29.65 "Hg15 mi
9:00 PM66 °FMostly cloudy.5 mph88%29.65 "Hg15 mi
8:00 PM68 °FMore clouds than sun.3 mph83%29.67 "Hg15 mi
7:00 PM66 °FCloudy.3 mph83%29.72 "Hg15 mi
6:04 PM64 °FOvercast.10 mph88%29.75 "Hg15 mi
5:00 PM79 °FPartly sunny.12 mph58%29.73 "Hg15 mi
4:00 PM82 °FPartly sunny.18 mph42%29.74 "Hg15 mi
3:00 PM84 °FScattered clouds.18 mph35%29.75 "Hg15 mi
2:00 PM84 °FScattered clouds.12 mph37%29.76 "Hg15 mi
1:00 PM82 °FScattered clouds.9 mph37%29.79 "Hg15 mi
Weather by CustomWeather, © 2015

See weather overviewHow to use our weather pages